Year,Month,Day,Hour,Minute,Value (Times are PST for temperature in C)
2007,07,05,00,01,15.80
2007,07,05,00,02,15.80
2007,07,05,00,03,15.80
2007,07,05,00,04,15.70
2007,07,05,00,05,15.70
2007,07,05,00,06,15.70
2007,07,05,00,07,15.70
2007,07,05,00,08,15.70
2007,07,05,00,09,15.60
2007,07,05,00,10,15.60
2007,07,05,00,11,15.60
2007,07,05,00,12,15.60
2007,07,05,00,13,15.60
2007,07,05,00,14,15.50
2007,07,05,00,15,15.50
2007,07,05,00,16,15.50
2007,07,05,00,17,15.50
2007,07,05,00,18,15.50
2007,07,05,00,19,15.40
2007,07,05,00,20,15.40
2007,07,05,00,21,15.40
2007,07,05,00,22,15.40
2007,07,05,00,23,15.30
2007,07,05,00,24,15.30
2007,07,05,00,25,15.30
2007,07,05,00,26,15.30
2007,07,05,00,27,15.30
2007,07,05,00,28,15.30
2007,07,05,00,29,15.30
2007,07,05,00,30,15.30
2007,07,05,00,31,15.30
2007,07,05,00,32,15.30
2007,07,05,00,33,15.30
2007,07,05,00,34,15.30
2007,07,05,00,35,15.30
2007,07,05,00,36,15.30
2007,07,05,00,37,15.30
2007,07,05,00,38,15.20
2007,07,05,00,39,15.20
2007,07,05,00,40,15.20
2007,07,05,00,41,15.20
2007,07,05,00,42,15.20
2007,07,05,00,43,15.20
2007,07,05,00,44,15.20
2007,07,05,00,45,15.10
2007,07,05,00,46,15.10
2007,07,05,00,47,15.10
2007,07,05,00,48,15.10
2007,07,05,00,49,15.10
2007,07,05,00,50,15.00
2007,07,05,00,51,15.00
2007,07,05,00,52,15.00
2007,07,05,00,53,15.00
2007,07,05,00,54,15.00
2007,07,05,00,55,15.00
2007,07,05,00,56,14.90
2007,07,05,00,57,14.90
2007,07,05,00,58,14.90
2007,07,05,00,59,14.90
2007,07,05,01,00,14.90
2007,07,05,01,01,14.90
2007,07,05,01,02,14.90
2007,07,05,01,03,14.90
2007,07,05,01,04,14.90
2007,07,05,01,05,14.90
2007,07,05,01,06,14.80
2007,07,05,01,07,14.80
2007,07,05,01,08,14.80
2007,07,05,01,09,14.80
2007,07,05,01,10,14.80
2007,07,05,01,11,14.80
2007,07,05,01,12,14.80
2007,07,05,01,13,14.80
2007,07,05,01,14,14.80
2007,07,05,01,15,14.80
2007,07,05,01,16,14.80
2007,07,05,01,17,14.80
2007,07,05,01,18,14.80
2007,07,05,01,19,14.80
2007,07,05,01,20,14.70
2007,07,05,01,21,14.70
2007,07,05,01,22,14.70
2007,07,05,01,23,14.70
2007,07,05,01,24,14.70
2007,07,05,01,25,14.60
2007,07,05,01,26,14.60
2007,07,05,01,27,14.60
2007,07,05,01,28,14.60
2007,07,05,01,29,14.60
2007,07,05,01,30,14.50
2007,07,05,01,31,14.50
2007,07,05,01,32,14.50
2007,07,05,01,33,14.50
2007,07,05,01,34,14.40
2007,07,05,01,35,14.40
2007,07,05,01,36,14.40
2007,07,05,01,37,14.40
2007,07,05,01,38,14.40
2007,07,05,01,39,14.30
2007,07,05,01,40,14.30
2007,07,05,01,41,14.30
2007,07,05,01,42,14.30
2007,07,05,01,43,14.30
2007,07,05,01,44,14.20
2007,07,05,01,45,14.20
2007,07,05,01,46,14.20
2007,07,05,01,47,14.20
2007,07,05,01,48,14.20
2007,07,05,01,49,14.20
2007,07,05,01,50,14.20
2007,07,05,01,51,14.20
2007,07,05,01,52,14.20
2007,07,05,01,53,14.20
2007,07,05,01,54,14.20
2007,07,05,01,55,14.10
2007,07,05,01,56,14.10
2007,07,05,01,57,14.10
2007,07,05,01,58,14.00
2007,07,05,01,59,14.00
2007,07,05,02,00,14.00
2007,07,05,02,01,14.00
2007,07,05,02,02,13.90
2007,07,05,02,03,13.90
2007,07,05,02,04,13.90
2007,07,05,02,05,13.90
2007,07,05,02,06,13.80
2007,07,05,02,07,13.80
2007,07,05,02,08,13.80
2007,07,05,02,09,13.80
2007,07,05,02,10,13.70
2007,07,05,02,11,13.70
2007,07,05,02,12,13.70
2007,07,05,02,13,13.70
2007,07,05,02,14,13.70
2007,07,05,02,15,13.70
2007,07,05,02,16,13.70
2007,07,05,02,17,13.70
2007,07,05,02,18,13.70
2007,07,05,02,19,13.60
2007,07,05,02,20,13.60
2007,07,05,02,21,13.60
2007,07,05,02,22,13.60
2007,07,05,02,23,13.60
2007,07,05,02,24,13.60
2007,07,05,02,25,13.50
2007,07,05,02,26,13.50
2007,07,05,02,27,13.50
2007,07,05,02,28,13.50
2007,07,05,02,29,13.50
2007,07,05,02,30,13.40
2007,07,05,02,31,13.40
2007,07,05,02,32,13.40
2007,07,05,02,33,13.30
2007,07,05,02,34,13.30
2007,07,05,02,35,13.30
2007,07,05,02,36,13.30
2007,07,05,02,37,13.30
2007,07,05,02,38,13.30
2007,07,05,02,39,13.30
2007,07,05,02,40,13.30
2007,07,05,02,41,13.30
2007,07,05,02,42,13.30
2007,07,05,02,43,13.30
2007,07,05,02,44,13.20
2007,07,05,02,45,13.20
2007,07,05,02,46,13.20
2007,07,05,02,47,13.20
2007,07,05,02,48,13.20
2007,07,05,02,49,13.10
2007,07,05,02,50,13.10
2007,07,05,02,51,13.10
2007,07,05,02,52,13.10
2007,07,05,02,53,13.10
2007,07,05,02,54,13.00
2007,07,05,02,55,13.00
2007,07,05,02,56,13.00
2007,07,05,02,57,13.00
2007,07,05,02,58,13.00
2007,07,05,02,59,13.00
2007,07,05,03,00,12.90
2007,07,05,03,01,12.90
2007,07,05,03,02,12.90
2007,07,05,03,03,12.90
2007,07,05,03,04,12.90
2007,07,05,03,05,12.90
2007,07,05,03,08,12.80
2007,07,05,03,09,12.80
2007,07,05,03,10,12.80
2007,07,05,03,11,12.80
2007,07,05,03,12,12.80
2007,07,05,03,13,12.80
2007,07,05,03,14,12.80
2007,07,05,03,15,12.80
2007,07,05,03,16,12.80
2007,07,05,03,17,12.80
2007,07,05,03,18,12.80
2007,07,05,03,19,12.80
2007,07,05,03,20,12.70
2007,07,05,03,21,12.70
2007,07,05,03,22,12.70
2007,07,05,03,23,12.70
2007,07,05,03,24,12.70
2007,07,05,03,25,12.70
2007,07,05,03,26,12.70
2007,07,05,03,27,12.70
2007,07,05,03,28,12.70
2007,07,05,03,29,12.70
2007,07,05,03,30,12.70
2007,07,05,03,31,12.60
2007,07,05,03,32,12.60
2007,07,05,03,33,12.60
2007,07,05,03,34,12.60
2007,07,05,03,35,12.60
2007,07,05,03,37,12.60
2007,07,05,03,38,12.50
2007,07,05,03,39,12.50
2007,07,05,03,40,12.50
2007,07,05,03,41,12.50
2007,07,05,03,42,12.50
2007,07,05,03,43,12.50
2007,07,05,03,44,12.50
2007,07,05,03,45,12.40
2007,07,05,03,46,12.40
2007,07,05,03,47,12.40
2007,07,05,03,48,12.40
2007,07,05,03,49,12.40
2007,07,05,03,50,12.40
2007,07,05,03,51,12.30
2007,07,05,03,52,12.30
2007,07,05,03,53,12.30
2007,07,05,03,54,12.30
2007,07,05,03,55,12.30
2007,07,05,03,56,12.30
2007,07,05,03,57,12.30
2007,07,05,03,58,12.30
2007,07,05,03,59,12.30
2007,07,05,04,00,12.30
2007,07,05,04,01,12.30
2007,07,05,04,02,12.30
2007,07,05,04,03,12.30
2007,07,05,04,04,12.30
2007,07,05,04,05,12.30
2007,07,05,04,06,12.30
2007,07,05,04,07,12.20
2007,07,05,04,08,12.20
2007,07,05,04,09,12.20
2007,07,05,04,10,12.20
2007,07,05,04,11,12.20
2007,07,05,04,12,12.20
2007,07,05,04,13,12.20
2007,07,05,04,14,12.20
2007,07,05,04,15,12.20
2007,07,05,04,16,12.20
2007,07,05,04,17,12.20
2007,07,05,04,18,12.20
2007,07,05,04,19,12.20
2007,07,05,04,20,12.10
2007,07,05,04,21,12.10
2007,07,05,04,22,12.10
2007,07,05,04,23,12.10
2007,07,05,04,24,12.10
2007,07,05,04,25,12.10
2007,07,05,04,26,12.00
2007,07,05,04,27,12.00
2007,07,05,04,28,12.00
2007,07,05,04,29,12.00
2007,07,05,04,30,12.00
2007,07,05,04,31,12.00
2007,07,05,04,32,12.00
2007,07,05,04,33,11.90
2007,07,05,04,34,11.90
2007,07,05,04,35,11.90
2007,07,05,04,36,11.90
2007,07,05,04,37,11.90
2007,07,05,04,38,11.90
2007,07,05,04,39,11.90
2007,07,05,04,40,11.90
2007,07,05,04,41,11.90
2007,07,05,04,42,11.90
2007,07,05,04,43,11.80
2007,07,05,04,44,11.80
2007,07,05,04,45,11.80
2007,07,05,04,46,11.80
2007,07,05,04,47,11.80
2007,07,05,04,48,11.80
2007,07,05,04,49,11.80
2007,07,05,04,50,11.80
2007,07,05,04,51,11.80
2007,07,05,04,52,11.80
2007,07,05,04,53,11.80
2007,07,05,04,54,11.80
2007,07,05,04,55,11.80
2007,07,05,04,56,11.70
2007,07,05,04,57,11.70
2007,07,05,04,58,11.70
2007,07,05,04,59,11.70
2007,07,05,05,00,11.70
2007,07,05,05,01,11.70
2007,07,05,05,02,11.60
2007,07,05,05,03,11.60
2007,07,05,05,04,11.60
2007,07,05,05,05,11.60
2007,07,05,05,06,11.60
2007,07,05,05,07,11.60
2007,07,05,05,08,11.60
2007,07,05,05,09,11.60
2007,07,05,05,10,11.60
2007,07,05,05,11,11.60
2007,07,05,05,12,11.60
2007,07,05,05,13,11.60
2007,07,05,05,14,11.60
2007,07,05,05,15,11.60
2007,07,05,05,16,11.60
2007,07,05,05,17,11.60
2007,07,05,05,18,11.60
2007,07,05,05,19,11.60
2007,07,05,05,20,11.60
2007,07,05,05,21,11.60
2007,07,05,05,22,11.60
2007,07,05,05,23,11.60
2007,07,05,05,24,11.40
2007,07,05,05,25,11.40
2007,07,05,05,26,11.40
2007,07,05,05,27,11.40
2007,07,05,05,28,11.40
2007,07,05,05,29,11.40
2007,07,05,05,30,11.40
2007,07,05,05,31,11.40
2007,07,05,05,32,11.40
2007,07,05,05,33,11.40
2007,07,05,05,34,11.40
2007,07,05,05,35,11.40
2007,07,05,05,36,11.40
2007,07,05,05,37,11.40
2007,07,05,05,38,11.40
2007,07,05,05,39,11.40
2007,07,05,05,40,11.40
2007,07,05,05,41,11.40
2007,07,05,05,42,11.40
2007,07,05,05,43,11.40
2007,07,05,05,44,11.40
2007,07,05,05,45,11.40
2007,07,05,05,46,11.30
2007,07,05,05,47,11.30
2007,07,05,05,48,11.30
2007,07,05,05,49,11.30
2007,07,05,05,50,11.30
2007,07,05,05,51,11.30
2007,07,05,05,52,11.30
2007,07,05,05,53,11.30
2007,07,05,05,54,11.30
2007,07,05,05,55,11.30
2007,07,05,05,56,11.30
2007,07,05,05,57,11.30
2007,07,05,05,58,11.30
2007,07,05,05,59,11.30
2007,07,05,06,00,11.30
2007,07,05,06,01,11.30
2007,07,05,06,02,11.30
2007,07,05,06,03,11.30
2007,07,05,06,04,11.30
2007,07,05,06,05,11.30
2007,07,05,06,06,11.30
2007,07,05,06,07,11.30
2007,07,05,06,08,11.30
2007,07,05,06,09,11.30
2007,07,05,06,10,11.30
2007,07,05,06,11,11.30
2007,07,05,06,12,11.30
2007,07,05,06,13,11.30
2007,07,05,06,14,11.30
2007,07,05,06,15,11.30
2007,07,05,06,16,11.30
2007,07,05,06,17,11.30
2007,07,05,06,18,11.30
2007,07,05,06,19,11.30
2007,07,05,06,20,11.30
2007,07,05,06,21,11.30
2007,07,05,06,22,11.40
2007,07,05,06,23,11.40
2007,07,05,06,24,11.40
2007,07,05,06,25,11.40
2007,07,05,06,26,11.40
2007,07,05,06,27,11.40
2007,07,05,06,28,11.40
2007,07,05,06,29,11.40
2007,07,05,06,30,11.60
2007,07,05,06,31,11.60
2007,07,05,06,32,11.60
2007,07,05,06,33,11.60
2007,07,05,06,34,11.70
2007,07,05,06,35,11.70
2007,07,05,06,36,11.70
2007,07,05,06,37,11.80
2007,07,05,06,38,11.80
2007,07,05,06,39,11.80
2007,07,05,06,40,11.90
2007,07,05,06,41,11.90
2007,07,05,06,42,12.00
2007,07,05,06,43,12.00
2007,07,05,06,44,12.10
2007,07,05,06,45,12.10
2007,07,05,06,46,12.10
2007,07,05,06,47,12.20
2007,07,05,06,48,12.20
2007,07,05,06,49,12.20
2007,07,05,06,50,12.30
2007,07,05,06,51,12.30
2007,07,05,06,52,12.30
2007,07,05,06,53,12.30
2007,07,05,06,54,12.40
2007,07,05,06,55,12.40
2007,07,05,06,56,12.40
2007,07,05,06,57,12.50
2007,07,05,06,58,12.50
2007,07,05,06,59,12.50
2007,07,05,07,00,12.60
2007,07,05,07,01,12.60
2007,07,05,07,02,12.70
2007,07,05,07,03,12.70
2007,07,05,07,04,12.70
2007,07,05,07,05,12.80
2007,07,05,07,06,12.80
2007,07,05,07,07,12.80
2007,07,05,07,08,12.80
2007,07,05,07,09,12.80
2007,07,05,07,10,12.80
2007,07,05,07,11,12.90
2007,07,05,07,12,12.90
2007,07,05,07,13,12.90
2007,07,05,07,14,12.90
2007,07,05,07,15,13.00
2007,07,05,07,16,13.00
2007,07,05,07,17,13.00
2007,07,05,07,18,13.10
2007,07,05,07,19,13.10
2007,07,05,07,20,13.20
2007,07,05,07,21,13.20
2007,07,05,07,22,13.20
2007,07,05,07,23,13.30
2007,07,05,07,24,13.30
2007,07,05,07,25,13.30
2007,07,05,07,26,13.30
2007,07,05,07,27,13.40
2007,07,05,07,28,13.40
2007,07,05,07,29,13.40
2007,07,05,07,30,13.50
2007,07,05,07,31,13.60
2007,07,05,07,32,13.60
2007,07,05,07,33,13.70
2007,07,05,07,34,13.70
2007,07,05,07,35,13.70
2007,07,05,07,36,13.70
2007,07,05,07,37,13.70
2007,07,05,07,38,13.70
2007,07,05,07,39,13.80
2007,07,05,07,40,13.80
2007,07,05,07,41,13.80
2007,07,05,07,42,13.80
2007,07,05,07,43,13.80
2007,07,05,07,44,13.80
2007,07,05,07,45,13.90
2007,07,05,07,46,13.90
2007,07,05,07,47,13.90
2007,07,05,07,48,13.90
2007,07,05,07,49,13.90
2007,07,05,07,50,13.90
2007,07,05,07,51,13.90
2007,07,05,07,52,13.90
2007,07,05,07,53,13.90
2007,07,05,07,54,13.90
2007,07,05,07,55,13.90
2007,07,05,07,56,13.90
2007,07,05,07,57,13.90
2007,07,05,07,58,13.90
2007,07,05,07,59,13.90
2007,07,05,08,00,14.00
2007,07,05,08,01,14.00
2007,07,05,08,02,14.00
2007,07,05,08,03,14.00
2007,07,05,08,04,14.00
2007,07,05,08,05,14.00
2007,07,05,08,06,14.00
2007,07,05,08,07,14.00
2007,07,05,08,08,14.00
2007,07,05,08,09,14.10
2007,07,05,08,10,14.10
2007,07,05,08,11,14.10
2007,07,05,08,12,14.20
2007,07,05,08,13,14.20
2007,07,05,08,14,14.20
2007,07,05,08,15,14.20
2007,07,05,08,16,14.30
2007,07,05,08,17,14.30
2007,07,05,08,18,14.30
2007,07,05,08,19,14.40
2007,07,05,08,20,14.40
2007,07,05,08,21,14.50
2007,07,05,08,22,14.50
2007,07,05,08,23,14.60
2007,07,05,08,24,14.70
2007,07,05,08,25,14.80
2007,07,05,08,26,14.80
2007,07,05,08,27,14.80
2007,07,05,08,28,14.90
2007,07,05,08,29,14.90
2007,07,05,08,30,14.90
2007,07,05,08,31,15.00
2007,07,05,08,32,15.00
2007,07,05,08,33,15.10
2007,07,05,08,34,15.10
2007,07,05,08,35,15.20
2007,07,05,08,36,15.30
2007,07,05,08,37,15.30
2007,07,05,08,38,15.30
2007,07,05,08,39,15.30
2007,07,05,08,40,15.30
2007,07,05,08,41,15.30
2007,07,05,08,42,15.30
2007,07,05,08,43,15.30
2007,07,05,08,44,15.30
2007,07,05,08,45,15.30
2007,07,05,08,46,15.30
2007,07,05,08,47,15.30
2007,07,05,08,48,15.30
2007,07,05,08,49,15.40
2007,07,05,08,50,15.40
2007,07,05,08,51,15.50
2007,07,05,08,52,15.50
2007,07,05,08,53,15.60
2007,07,05,08,54,15.60
2007,07,05,08,55,15.70
2007,07,05,08,56,15.80
2007,07,05,08,57,15.80
2007,07,05,08,58,15.80
2007,07,05,08,59,15.90
2007,07,05,09,00,15.90
2007,07,05,09,01,16.10
2007,07,05,09,02,16.10
2007,07,05,09,03,16.20
2007,07,05,09,04,16.40
2007,07,05,09,05,16.40
2007,07,05,09,06,16.60
2007,07,05,09,07,16.70
2007,07,05,09,08,16.70
2007,07,05,09,09,16.80
2007,07,05,09,10,16.90
2007,07,05,09,11,16.90
2007,07,05,09,12,16.90
2007,07,05,09,13,16.90
2007,07,05,09,14,17.00
2007,07,05,09,15,17.00
2007,07,05,09,16,17.10
2007,07,05,09,17,17.00
2007,07,05,09,18,17.00
2007,07,05,09,19,16.90
2007,07,05,09,20,16.90
2007,07,05,09,21,16.90
2007,07,05,09,22,16.90
2007,07,05,09,23,16.90
2007,07,05,09,24,16.80
2007,07,05,09,25,16.80
2007,07,05,09,26,16.80
2007,07,05,09,27,16.90
2007,07,05,09,28,16.90
2007,07,05,09,29,16.90
2007,07,05,09,30,17.00
2007,07,05,09,31,17.00
2007,07,05,09,32,17.10
2007,07,05,09,33,17.10
2007,07,05,09,34,17.10
2007,07,05,09,35,17.20
2007,07,05,09,36,17.20
2007,07,05,09,37,17.20
2007,07,05,09,38,17.30
2007,07,05,09,39,17.30
2007,07,05,09,40,17.30
2007,07,05,09,41,17.30
2007,07,05,09,42,17.40
2007,07,05,09,43,17.40
2007,07,05,09,44,17.50
2007,07,05,09,45,17.50
2007,07,05,09,46,17.50
2007,07,05,09,47,17.60
2007,07,05,09,48,17.60
2007,07,05,09,49,17.60
2007,07,05,09,50,17.60
2007,07,05,09,51,17.70
2007,07,05,09,52,17.70
2007,07,05,09,53,17.80
2007,07,05,09,54,17.80
2007,07,05,09,55,17.90
2007,07,05,09,56,17.90
2007,07,05,09,57,17.90
2007,07,05,09,58,17.90
2007,07,05,09,59,18.10
2007,07,05,10,00,18.10
2007,07,05,10,01,18.20
2007,07,05,10,02,18.20
2007,07,05,10,03,18.20
2007,07,05,10,04,18.20
2007,07,05,10,05,18.20
2007,07,05,10,06,18.20
2007,07,05,10,07,18.20
2007,07,05,10,08,18.20
2007,07,05,10,09,18.30
2007,07,05,10,10,18.30
2007,07,05,10,11,18.40
2007,07,05,10,12,18.40
2007,07,05,10,13,18.50
2007,07,05,10,14,18.60
2007,07,05,10,15,18.70
2007,07,05,10,16,18.80
2007,07,05,10,17,18.90
2007,07,05,10,18,19.10
2007,07,05,10,19,19.10
2007,07,05,10,20,19.10
2007,07,05,10,21,19.20
2007,07,05,10,22,19.20
2007,07,05,10,23,19.20
2007,07,05,10,24,19.10
2007,07,05,10,25,19.10
2007,07,05,10,26,19.10
2007,07,05,10,27,19.20
2007,07,05,10,28,19.20
2007,07,05,10,29,19.30
2007,07,05,10,30,19.40
2007,07,05,10,31,19.50
2007,07,05,10,32,19.60
2007,07,05,10,33,19.60
2007,07,05,10,34,19.70
2007,07,05,10,35,19.80
2007,07,05,10,36,19.90
2007,07,05,10,37,19.90
2007,07,05,10,38,20.10
2007,07,05,10,39,20.10
2007,07,05,10,40,20.20
2007,07,05,10,41,20.20
2007,07,05,10,42,20.30
2007,07,05,10,43,20.30
2007,07,05,10,44,20.30
2007,07,05,10,45,20.30
2007,07,05,10,46,20.40
2007,07,05,10,47,20.40
2007,07,05,10,48,20.40
2007,07,05,10,49,20.50
2007,07,05,10,50,20.50
2007,07,05,10,51,20.60
2007,07,05,10,52,20.60
2007,07,05,10,53,20.60
2007,07,05,10,54,20.60
2007,07,05,10,55,20.70
2007,07,05,10,56,20.60
2007,07,05,10,57,20.60
2007,07,05,10,58,20.60
2007,07,05,10,59,20.70
2007,07,05,11,00,20.70
2007,07,05,11,01,20.70
2007,07,05,11,02,20.80
2007,07,05,11,03,20.80
2007,07,05,11,04,20.90
2007,07,05,11,05,21.00
2007,07,05,11,06,21.00
2007,07,05,11,11,21.10
2007,07,05,11,12,21.10
2007,07,05,11,13,21.20
2007,07,05,11,14,21.20
2007,07,05,11,15,21.20
2007,07,05,11,16,21.20
2007,07,05,11,17,21.30
2007,07,05,11,18,21.30
2007,07,05,11,19,21.40
2007,07,05,11,20,21.40
2007,07,05,11,21,21.60
2007,07,05,11,22,21.60
2007,07,05,11,23,21.60
2007,07,05,11,24,21.60
2007,07,05,11,25,21.60
2007,07,05,11,26,21.60
2007,07,05,11,27,21.60
2007,07,05,11,28,21.70
2007,07,05,11,29,21.80
2007,07,05,11,30,21.80
2007,07,05,11,31,21.80
2007,07,05,11,32,21.80
2007,07,05,11,33,21.90
2007,07,05,11,34,21.90
2007,07,05,11,35,22.00
2007,07,05,11,36,22.00
2007,07,05,11,37,22.10
2007,07,05,11,38,22.20
2007,07,05,11,39,22.20
2007,07,05,11,40,22.30
2007,07,05,11,41,22.40
2007,07,05,11,42,22.60
2007,07,05,11,43,22.70
2007,07,05,11,44,22.80
2007,07,05,11,45,22.90
2007,07,05,11,46,22.90
2007,07,05,11,47,23.10
2007,07,05,11,48,23.20
2007,07,05,11,49,23.30
2007,07,05,11,50,23.40
2007,07,05,11,51,23.60
2007,07,05,11,52,23.70
2007,07,05,11,53,23.80
2007,07,05,11,54,23.90
2007,07,05,11,55,23.90
2007,07,05,11,56,23.90
2007,07,05,11,57,23.90
2007,07,05,11,58,23.90
2007,07,05,11,59,23.80
2007,07,05,12,00,23.80
2007,07,05,12,01,23.80
2007,07,05,12,02,23.80
2007,07,05,12,03,23.80
2007,07,05,12,04,23.80
2007,07,05,12,05,23.80
2007,07,05,12,06,23.90
2007,07,05,12,07,24.10
2007,07,05,12,08,24.10
2007,07,05,12,09,24.20
2007,07,05,12,10,24.20
2007,07,05,12,11,24.30
2007,07,05,12,12,24.40
2007,07,05,12,13,24.50
2007,07,05,12,14,24.60
2007,07,05,12,15,24.70
2007,07,05,12,16,24.80
2007,07,05,12,17,24.90
2007,07,05,12,18,25.00
2007,07,05,12,19,25.00
2007,07,05,12,20,25.10
2007,07,05,12,21,25.20
2007,07,05,12,22,25.20
2007,07,05,12,23,25.30
2007,07,05,12,24,25.40
2007,07,05,12,25,25.50
2007,07,05,12,26,25.60
2007,07,05,12,27,25.70
2007,07,05,12,28,25.70
2007,07,05,12,29,25.60
2007,07,05,12,30,25.60
2007,07,05,12,31,25.70
2007,07,05,12,32,25.70
2007,07,05,12,33,25.70
2007,07,05,12,34,25.80
2007,07,05,12,35,25.80
2007,07,05,12,36,25.90
2007,07,05,12,37,25.90
2007,07,05,12,38,26.00
2007,07,05,12,39,26.00
2007,07,05,12,40,26.10
2007,07,05,12,41,26.20
2007,07,05,12,42,26.20
2007,07,05,12,43,26.20
2007,07,05,12,44,26.20
2007,07,05,12,45,26.30
2007,07,05,12,46,26.30
2007,07,05,12,47,26.20
2007,07,05,12,48,26.10
2007,07,05,12,49,26.00
2007,07,05,12,50,26.00
2007,07,05,12,51,26.00
2007,07,05,12,52,26.00
2007,07,05,12,53,26.00
2007,07,05,12,54,26.00
2007,07,05,12,55,26.00
2007,07,05,12,56,25.90
2007,07,05,12,57,25.90
2007,07,05,12,58,26.00
2007,07,05,12,59,26.00
2007,07,05,13,00,26.20
2007,07,05,13,01,26.30
2007,07,05,13,02,26.30
2007,07,05,13,03,26.30
2007,07,05,13,04,26.40
2007,07,05,13,05,26.40
2007,07,05,13,06,26.60
2007,07,05,13,07,26.60
2007,07,05,13,08,26.60
2007,07,05,13,09,26.60
2007,07,05,13,10,26.60
2007,07,05,13,11,26.60
2007,07,05,13,12,26.60
2007,07,05,13,13,26.60
2007,07,05,13,14,26.60
2007,07,05,13,15,26.60
2007,07,05,13,16,26.40
2007,07,05,13,17,26.40
2007,07,05,13,18,26.30
2007,07,05,13,19,26.20
2007,07,05,13,20,26.20
2007,07,05,13,21,26.20
2007,07,05,13,22,26.20
2007,07,05,13,23,26.20
2007,07,05,13,24,26.30
2007,07,05,13,25,26.30
2007,07,05,13,26,26.40
2007,07,05,13,27,26.40
2007,07,05,13,28,26.40
2007,07,05,13,29,26.60
2007,07,05,13,30,26.60
2007,07,05,13,31,26.70
2007,07,05,13,32,26.70
2007,07,05,13,33,26.80
2007,07,05,13,34,26.80
2007,07,05,13,35,26.90
2007,07,05,13,36,26.90
2007,07,05,13,37,26.90
2007,07,05,13,38,27.10
2007,07,05,13,39,27.10
2007,07,05,13,40,27.10
2007,07,05,13,41,27.20
2007,07,05,13,42,27.30
2007,07,05,13,43,27.30
2007,07,05,13,44,27.30
2007,07,05,13,45,27.40
2007,07,05,13,46,27.70
2007,07,05,13,47,27.80
2007,07,05,13,48,27.90
2007,07,05,13,49,28.00
2007,07,05,13,50,28.10
2007,07,05,13,51,28.20
2007,07,05,13,52,28.20
2007,07,05,13,53,28.20
2007,07,05,13,54,28.10
2007,07,05,13,55,28.10
2007,07,05,13,56,28.10
2007,07,05,13,57,28.20
2007,07,05,13,58,28.30
2007,07,05,13,59,28.40
2007,07,05,14,01,28.60
2007,07,05,14,02,28.60
2007,07,05,14,03,28.70
2007,07,05,14,04,28.80
2007,07,05,14,05,28.80
2007,07,05,14,06,28.90
2007,07,05,14,07,28.90
2007,07,05,14,08,28.90
2007,07,05,14,09,28.90
2007,07,05,14,10,29.10
2007,07,05,14,11,29.10
2007,07,05,14,12,29.10
2007,07,05,14,13,28.90
2007,07,05,14,14,28.90
2007,07,05,14,15,28.90
2007,07,05,14,16,28.90
2007,07,05,14,17,28.90
2007,07,05,14,18,28.90
2007,07,05,14,19,28.90
2007,07,05,14,20,29.10
2007,07,05,14,21,29.20
2007,07,05,14,22,29.30
2007,07,05,14,23,29.40
2007,07,05,14,24,29.50
2007,07,05,14,25,29.50
2007,07,05,14,26,29.60
2007,07,05,14,27,29.70
2007,07,05,14,28,29.80
2007,07,05,14,29,29.80
2007,07,05,14,30,29.80
2007,07,05,14,31,29.80
2007,07,05,14,32,29.80
2007,07,05,14,33,29.70
2007,07,05,14,34,29.70
2007,07,05,14,35,29.60
2007,07,05,14,36,29.60
2007,07,05,14,37,29.60
2007,07,05,14,38,29.60
2007,07,05,14,39,29.50
2007,07,05,14,40,29.50
2007,07,05,14,41,29.50
2007,07,05,14,42,29.40
2007,07,05,14,43,29.40
2007,07,05,14,44,29.30
2007,07,05,14,45,29.30
2007,07,05,14,46,29.30
2007,07,05,14,47,29.30
2007,07,05,14,48,29.40
2007,07,05,14,49,29.40
2007,07,05,14,50,29.40
2007,07,05,14,51,29.50
2007,07,05,14,52,29.50
2007,07,05,14,53,29.50
2007,07,05,14,54,29.60
2007,07,05,14,55,29.70
2007,07,05,14,56,29.70
2007,07,05,14,57,29.80
2007,07,05,14,58,29.80
2007,07,05,14,59,29.90
2007,07,05,15,00,30.10
2007,07,05,15,01,30.10
2007,07,05,15,02,30.20
2007,07,05,15,03,30.20
2007,07,05,15,04,30.20
2007,07,05,15,05,30.20
2007,07,05,15,06,30.20
2007,07,05,15,07,30.30
2007,07,05,15,08,30.30
2007,07,05,15,09,30.30
2007,07,05,15,10,30.30
2007,07,05,15,11,30.30
2007,07,05,15,12,30.30
2007,07,05,15,13,30.30
2007,07,05,15,14,30.30
2007,07,05,15,15,30.30
2007,07,05,15,16,30.30
2007,07,05,15,17,30.30
2007,07,05,15,18,30.30
2007,07,05,15,19,30.30
2007,07,05,15,20,30.20
2007,07,05,15,21,30.20
2007,07,05,15,22,30.20
2007,07,05,15,23,30.20
2007,07,05,15,24,30.20
2007,07,05,15,25,30.20
2007,07,05,15,26,30.20
2007,07,05,15,27,30.30
2007,07,05,15,28,30.30
2007,07,05,15,29,30.40
2007,07,05,15,30,30.40
2007,07,05,15,31,30.60
2007,07,05,15,32,30.60
2007,07,05,15,33,30.60
2007,07,05,15,34,30.70
2007,07,05,15,35,30.70
2007,07,05,15,36,30.70
2007,07,05,15,37,30.80
2007,07,05,15,38,30.80
2007,07,05,15,39,30.90
2007,07,05,15,40,30.90
2007,07,05,15,41,31.00
2007,07,05,15,42,31.00
2007,07,05,15,43,30.90
2007,07,05,15,44,30.90
2007,07,05,15,45,30.80
2007,07,05,15,46,30.80
2007,07,05,15,47,30.80
2007,07,05,15,48,30.70
2007,07,05,15,49,30.70
2007,07,05,15,50,30.80
2007,07,05,15,51,30.90
2007,07,05,15,52,30.90
2007,07,05,15,53,31.00
2007,07,05,15,54,30.90
2007,07,05,15,55,30.90
2007,07,05,15,56,30.80
2007,07,05,15,57,30.80
2007,07,05,15,58,30.80
2007,07,05,15,59,30.80
2007,07,05,16,00,30.60
2007,07,05,16,01,30.60
2007,07,05,16,02,30.60
2007,07,05,16,03,30.40
2007,07,05,16,04,30.40
2007,07,05,16,05,30.40
2007,07,05,16,07,30.60
2007,07,05,16,08,30.60
2007,07,05,16,09,30.70
2007,07,05,16,10,30.80
2007,07,05,16,11,30.80
2007,07,05,16,12,30.80
2007,07,05,16,13,30.90
2007,07,05,16,14,30.90
2007,07,05,16,15,31.00
2007,07,05,16,16,31.10
2007,07,05,16,17,31.20
2007,07,05,16,18,31.10
2007,07,05,16,19,31.20
2007,07,05,16,20,31.30
2007,07,05,16,21,31.30
2007,07,05,16,22,31.30
2007,07,05,16,23,31.40
2007,07,05,16,24,31.60
2007,07,05,16,25,31.70
2007,07,05,16,26,31.80
2007,07,05,16,27,31.80
2007,07,05,16,28,31.90
2007,07,05,16,29,31.90
2007,07,05,16,30,32.10
2007,07,05,16,31,32.10
2007,07,05,16,32,32.10
2007,07,05,16,33,32.10
2007,07,05,16,34,32.10
2007,07,05,16,35,32.10
2007,07,05,16,36,31.90
2007,07,05,16,37,31.90
2007,07,05,16,38,31.80
2007,07,05,16,39,31.70
2007,07,05,16,40,31.70
2007,07,05,16,41,31.60
2007,07,05,16,42,31.40
2007,07,05,16,43,31.40
2007,07,05,16,44,31.60
2007,07,05,16,45,31.60
2007,07,05,16,46,31.60
2007,07,05,16,47,31.60
2007,07,05,16,48,31.60
2007,07,05,16,49,31.60
2007,07,05,16,50,31.60
2007,07,05,16,51,31.60
2007,07,05,16,52,31.60
2007,07,05,16,53,31.60
2007,07,05,16,54,31.40
2007,07,05,16,55,31.40
2007,07,05,16,56,31.40
2007,07,05,16,57,31.40
2007,07,05,16,58,31.40
2007,07,05,16,59,31.40
2007,07,05,17,00,31.40
2007,07,05,17,01,31.40
2007,07,05,17,02,31.40
2007,07,05,17,03,31.40
2007,07,05,17,04,31.40
2007,07,05,17,05,31.40
2007,07,05,17,06,31.40
2007,07,05,17,07,31.40
2007,07,05,17,08,31.30
2007,07,05,17,09,31.30
2007,07,05,17,10,31.30
2007,07,05,17,11,31.30
2007,07,05,17,12,31.40
2007,07,05,17,13,31.40
2007,07,05,17,14,31.40
2007,07,05,17,15,31.60
2007,07,05,17,17,31.60
2007,07,05,17,18,31.60
2007,07,05,17,19,31.60
2007,07,05,17,20,31.60
2007,07,05,17,21,31.40
2007,07,05,17,22,31.30
2007,07,05,17,23,31.30
2007,07,05,17,24,31.20
2007,07,05,17,25,31.20
2007,07,05,17,26,31.10
2007,07,05,17,27,31.10
2007,07,05,17,28,31.10
2007,07,05,17,29,31.00
2007,07,05,17,30,31.00